owner,sensor,date,latitude,longitude,air_temperature,qcFlag 
TABS,ioos:station:wmo:42045:1,2006-04-01T00:09:00Z,26.2168,-96.4998,24.2,11144222 
TABS,ioos:station:wmo:42045:1,2006-04-01T00:39:00Z,26.2168,-96.4998,24.1,11144222 
TABS,ioos:station:wmo:42045:1,2006-04-01T01:09:00Z,26.2168,-96.4998,24.4,11144222 
TABS,ioos:station:wmo:42045:1,2006-04-01T01:39:00Z,26.2168,-96.4998,24.4,11144222 
TABS,ioos:station:wmo:42045:1,2006-04-01T02:09:00Z,26.2168,-96.4998,24.2,11144222 
TABS,ioos:station:wmo:42045:1,2006-04-01T02:39:00Z,26.2168,-96.4998,24.2,11144222 
TABS,ioos:station:wmo:42045:1,2006-04-01T03:09:00Z,26.2168,-96.4998,24.3,11144222 
TABS,ioos:station:wmo:42045:1,2006-04-01T03:39:00Z,26.2168,-96.4998,24.2,11144222 
TABS,ioos:station:wmo:42045:1,2006-04-01T04:09:00Z,26.2168,-96.4998,24.2,11144222 
TABS,ioos:station:wmo:42045:1,2006-04-01T04:39:00Z,26.2168,-96.4998,24.1,11144222 
TABS,ioos:station:wmo:42045:1,2006-04-01T05:09:00Z,26.2168,-96.4998,24.0,11144222 
TABS,ioos:station:wmo:42045:1,2006-04-01T05:39:00Z,26.2168,-96.4998,24.0,11144222 
TABS,ioos:station:wmo:42045:1,2006-04-01T06:09:00Z,26.2168,-96.4998,24.1,11144222 
TABS,ioos:station:wmo:42045:1,2006-04-01T06:39:00Z,26.2168,-96.4998,24.1,11144222 
TABS,ioos:station:wmo:42045:1,2006-04-01T07:09:00Z,26.2168,-96.4998,24.0,11144222 
TABS,ioos:station:wmo:42045:1,2006-04-01T07:39:00Z,26.2168,-96.4998,24.0,11144222 
TABS,ioos:station:wmo:42045:1,2006-04-01T08:09:00Z,26.2168,-96.4998,24.0,11144222 
TABS,ioos:station:wmo:42045:1,2006-04-01T08:39:00Z,26.2168,-96.4998,24.0,11144222 
TABS,ioos:station:wmo:42045:1,2006-04-01T09:09:00Z,26.2168,-96.4998,24.0,11144222 
TABS,ioos:station:wmo:42045:1,2006-04-01T09:39:00Z,26.2168,-96.4998,23.9,11144222 
TABS,ioos:station:wmo:42045:1,2006-04-01T10:09:00Z,26.2168,-96.4998,23.9,11144222 
TABS,ioos:station:wmo:42045:1,2006-04-01T10:39:00Z,26.2168,-96.4998,24.0,11144222 
TABS,ioos:station:wmo:42045:1,2006-04-01T11:09:00Z,26.2168,-96.4998,23.7,11144222 
TABS,ioos:station:wmo:42045:1,2006-04-01T11:39:00Z,26.2168,-96.4998,23.7,11144222 
TABS,ioos:station:wmo:42045:1,2006-04-01T12:09:00Z,26.2168,-96.4998,23.7,11144222 
TABS,ioos:station:wmo:42045:1,2006-04-01T12:39:00Z,26.2168,-96.4998,23.6,11144222 
TABS,ioos:station:wmo:42045:1,2006-04-01T13:09:00Z,26.2168,-96.4998,23.7,11144222 
TABS,ioos:station:wmo:42045:1,2006-04-01T13:39:00Z,26.2168,-96.4998,23.8,11144222 
TABS,ioos:station:wmo:42045:1,2006-04-01T14:09:00Z,26.2168,-96.4998,24.0,11144222 
TABS,ioos:station:wmo:42045:1,2006-04-01T14:39:00Z,26.2168,-96.4998,23.9,11144222 
TABS,ioos:station:wmo:42045:1,2006-04-01T15:09:00Z,26.2168,-96.4998,24.0,11144222 
TABS,ioos:station:wmo:42045:1,2006-04-01T16:09:00Z,26.2168,-96.4998,24.1,11144222 
TABS,ioos:station:wmo:42045:1,2006-04-01T16:39:00Z,26.2168,-96.4998,24.0,11144222 
TABS,ioos:station:wmo:42045:1,2006-04-01T17:09:00Z,26.2168,-96.4998,24.0,11144222 
TABS,ioos:station:wmo:42045:1,2006-04-01T17:39:00Z,26.2168,-96.4998,24.0,11144222 
TABS,ioos:station:wmo:42045:1,2006-04-01T18:09:00Z,26.2168,-96.4998,24.1,11144222 
TABS,ioos:station:wmo:42045:1,2006-04-01T18:39:00Z,26.2168,-96.4998,24.2,11144222 
TABS,ioos:station:wmo:42045:1,2006-04-01T19:09:00Z,26.2168,-96.4998,24.2,11144222 
TABS,ioos:station:wmo:42045:1,2006-04-01T19:39:00Z,26.2168,-96.4998,24.3,11144222 
TABS,ioos:station:wmo:42045:1,2006-04-01T20:09:00Z,26.2168,-96.4998,24.4,11144222 
TABS,ioos:station:wmo:42045:1,2006-04-01T20:39:00Z,26.2168,-96.4998,24.3,11144222 
TABS,ioos:station:wmo:42045:1,2006-04-01T21:09:00Z,26.2168,-96.4998,24.4,11144222 
TABS,ioos:station:wmo:42045:1,2006-04-01T22:09:00Z,26.2168,-96.4998,24.4,11144222 
TABS,ioos:station:wmo:42045:1,2006-04-01T22:39:00Z,26.2168,-96.4998,24.4,11144222 
TABS,ioos:station:wmo:42045:1,2006-04-01T23:09:00Z,26.2168,-96.4998,24.4,11144222 
TABS,ioos:station:wmo:42045:1,2006-04-01T23:39:00Z,26.2168,-96.4998,24.5,11144222 
TABS,ioos:station:wmo:42045:1,2006-04-02T00:09:00Z,26.2168,-96.4998,24.6,11144222 
TABS,ioos:station:wmo:42045:1,2006-04-02T00:39:00Z,26.2168,-96.4998,24.6,11144222 
TABS,ioos:station:wmo:42045:1,2006-04-02T01:09:00Z,26.2168,-96.4998,24.6,11144222 
TABS,ioos:station:wmo:42045:1,2006-04-02T01:39:00Z,26.2168,-96.4998,24.6,11144222 
TABS,ioos:station:wmo:42045:1,2006-04-02T02:09:00Z,26.2168,-96.4998,24.8,11144222 
TABS,ioos:station:wmo:42045:1,2006-04-02T02:39:00Z,26.2168,-96.4998,24.8,11144222 
TABS,ioos:station:wmo:42045:1,2006-04-02T03:09:00Z,26.2168,-96.4998,24.8,11144222 
TABS,ioos:station:wmo:42045:1,2006-04-02T03:39:00Z,26.2168,-96.4998,24.7,11144222 
TABS,ioos:station:wmo:42045:1,2006-04-02T04:09:00Z,26.2168,-96.4998,24.7,11144222 
TABS,ioos:station:wmo:42045:1,2006-04-02T04:39:00Z,26.2168,-96.4998,24.6,11144222 
TABS,ioos:station:wmo:42045:1,2006-04-02T05:09:00Z,26.2168,-96.4998,24.7,11144222 
TABS,ioos:station:wmo:42045:1,2006-04-02T05:39:00Z,26.2168,-96.4998,24.5,11144222 
TABS,ioos:station:wmo:42045:1,2006-04-02T06:09:00Z,26.2168,-96.4998,24.4,11144222 
TABS,ioos:station:wmo:42045:1,2006-04-02T06:39:00Z,26.2168,-96.4998,24.5,11144222 
TABS,ioos:station:wmo:42045:1,2006-04-02T07:09:00Z,26.2168,-96.4998,24.4,11144222 
TABS,ioos:station:wmo:42045:1,2006-04-02T07:39:00Z,26.2168,-96.4998,24.4,11144222 
TABS,ioos:station:wmo:42045:1,2006-04-02T08:09:00Z,26.2168,-96.4998,24.3,11144222 
TABS,ioos:station:wmo:42045:1,2006-04-02T08:39:00Z,26.2168,-96.4998,24.2,11144222 
TABS,ioos:station:wmo:42045:1,2006-04-02T09:09:00Z,26.2168,-96.4998,24.1,11144222 
TABS,ioos:station:wmo:42045:1,2006-04-02T09:39:00Z,26.2168,-96.4998,24.1,11144222 
TABS,ioos:station:wmo:42045:1,2006-04-02T10:09:00Z,26.2168,-96.4998,24.0,11144222 
TABS,ioos:station:wmo:42045:1,2006-04-02T10:39:00Z,26.2168,-96.4998,24.0,11144222 
TABS,ioos:station:wmo:42045:1,2006-04-02T11:09:00Z,26.2168,-96.4998,24.0,11144222 
TABS,ioos:station:wmo:42045:1,2006-04-02T11:39:00Z,26.2168,-96.4998,24.0,11144222 
TABS,ioos:station:wmo:42045:1,2006-04-02T12:09:00Z,26.2168,-96.4998,23.9,11144222 
TABS,ioos:station:wmo:42045:1,2006-04-02T12:39:00Z,26.2168,-96.4998,23.9,11144222 
TABS,ioos:station:wmo:42045:1,2006-04-02T13:09:00Z,26.2168,-96.4998,23.9,11144222 
TABS,ioos:station:wmo:42045:1,2006-04-02T13:39:00Z,26.2168,-96.4998,24.0,11144222 
TABS,ioos:station:wmo:42045:1,2006-04-02T14:09:00Z,26.2168,-96.4998,24.2,11144222 
TABS,ioos:station:wmo:42045:1,2006-04-02T14:39:00Z,26.2168,-96.4998,24.2,11144222 
TABS,ioos:station:wmo:42045:1,2006-04-02T15:09:00Z,26.2168,-96.4998,24.2,11144222 
TABS,ioos:station:wmo:42045:1,2006-04-02T16:09:00Z,26.2168,-96.4998,24.2,11144222 
TABS,ioos:station:wmo:42045:1,2006-04-02T16:39:00Z,26.2168,-96.4998,24.2,11144222 
TABS,ioos:station:wmo:42045:1,2006-04-02T17:09:00Z,26.2168,-96.4998,24.2,11144222 
TABS,ioos:station:wmo:42045:1,2006-04-02T17:39:00Z,26.2168,-96.4998,24.2,11144222 
TABS,ioos:station:wmo:42045:1,2006-04-02T18:09:00Z,26.2168,-96.4998,24.2,11144222 
TABS,ioos:station:wmo:42045:1,2006-04-02T18:39:00Z,26.2168,-96.4998,24.3,11144222 
TABS,ioos:station:wmo:42045:1,2006-04-02T19:09:00Z,26.2168,-96.4998,24.4,11144222 
TABS,ioos:station:wmo:42045:1,2006-04-02T19:39:00Z,26.2168,-96.4998,24.4,11144222 
TABS,ioos:station:wmo:42045:1,2006-04-02T20:09:00Z,26.2168,-96.4998,24.4,11144222 
TABS,ioos:station:wmo:42045:1,2006-04-02T20:39:00Z,26.2168,-96.4998,24.4,11144222 
TABS,ioos:station:wmo:42045:1,2006-04-02T21:09:00Z,26.2168,-96.4998,24.4,11144222 
TABS,ioos:station:wmo:42045:1,2006-04-02T22:09:00Z,26.2168,-96.4998,24.5,11144222 
TABS,ioos:station:wmo:42045:1,2006-04-02T22:39:00Z,26.2168,-96.4998,24.5,11144222 
TABS,ioos:station:wmo:42045:1,2006-04-02T23:09:00Z,26.2168,-96.4998,24.6,11144222 
TABS,ioos:station:wmo:42045:1,2006-04-02T23:39:00Z,26.2168,-96.4998,24.4,11144222 
TABS,ioos:station:wmo:42045:1,2006-04-03T00:09:00Z,26.2168,-96.4998,24.4,11144222 
TABS,ioos:station:wmo:42045:1,2006-04-03T00:39:00Z,26.2168,-96.4998,24.4,11144222 
TABS,ioos:station:wmo:42045:1,2006-04-03T01:09:00Z,26.2168,-96.4998,24.5,11144222 
TABS,ioos:station:wmo:42045:1,2006-04-03T01:39:00Z,26.2168,-96.4998,24.4,11144222 
TABS,ioos:station:wmo:42045:1,2006-04-03T02:09:00Z,26.2168,-96.4998,24.5,11144222 
TABS,ioos:station:wmo:42045:1,2006-04-03T02:39:00Z,26.2168,-96.4998,24.6,11144222 
TABS,ioos:station:wmo:42045:1,2006-04-03T03:09:00Z,26.2168,-96.4998,24.5,11144222 
TABS,ioos:station:wmo:42045:1,2006-04-03T03:39:00Z,26.2168,-96.4998,24.4,11144222 
TABS,ioos:station:wmo:42045:1,2006-04-03T04:09:00Z,26.2168,-96.4998,24.5,11144222 
TABS,ioos:station:wmo:42045:1,2006-04-03T04:39:00Z,26.2168,-96.4998,24.4,11144222 
TABS,ioos:station:wmo:42045:1,2006-04-03T05:09:00Z,26.2168,-96.4998,24.4,11144222 
TABS,ioos:station:wmo:42045:1,2006-04-03T05:39:00Z,26.2168,-96.4998,24.4,11144222 
TABS,ioos:station:wmo:42045:1,2006-04-03T06:09:00Z,26.2168,-96.4998,24.5,11144222 
TABS,ioos:station:wmo:42045:1,2006-04-03T06:39:00Z,26.2168,-96.4998,24.5,11144222 
TABS,ioos:station:wmo:42045:1,2006-04-03T07:09:00Z,26.2168,-96.4998,24.4,11144222 
TABS,ioos:station:wmo:42045:1,2006-04-03T07:39:00Z,26.2168,-96.4998,24.4,11144222 
TABS,ioos:station:wmo:42045:1,2006-04-03T08:09:00Z,26.2168,-96.4998,24.4,11144222 
TABS,ioos:station:wmo:42045:1,2006-04-03T08:39:00Z,26.2168,-96.4998,24.4,11144222 
TABS,ioos:station:wmo:42045:1,2006-04-03T09:09:00Z,26.2168,-96.4998,24.4,11144222 
TABS,ioos:station:wmo:42045:1,2006-04-03T09:39:00Z,26.2168,-96.4998,24.3,11144222 
TABS,ioos:station:wmo:42045:1,2006-04-03T10:09:00Z,26.2168,-96.4998,24.2,11144222 
TABS,ioos:station:wmo:42045:1,2006-04-03T10:39:00Z,26.2168,-96.4998,24.1,11144222 
TABS,ioos:station:wmo:42045:1,2006-04-03T11:09:00Z,26.2168,-96.4998,24.1,11144222 
TABS,ioos:station:wmo:42045:1,2006-04-03T11:39:00Z,26.2168,-96.4998,24.1,11144222 
TABS,ioos:station:wmo:42045:1,2006-04-03T12:09:00Z,26.2168,-96.4998,24.1,11144222 
TABS,ioos:station:wmo:42045:1,2006-04-03T12:39:00Z,26.2168,-96.4998,24.0,11144222 
TABS,ioos:station:wmo:42045:1,2006-04-03T13:09:00Z,26.2168,-96.4998,24.1,11144222 
TABS,ioos:station:wmo:42045:1,2006-04-03T13:39:00Z,26.2168,-96.4998,24.2,11144222 
TABS,ioos:station:wmo:42045:1,2006-04-03T14:09:00Z,26.2168,-96.4998,24.1,11144222 
TABS,ioos:station:wmo:42045:1,2006-04-03T14:39:00Z,26.2168,-96.4998,24.2,11144222 
TABS,ioos:station:wmo:42045:1,2006-04-03T15:09:00Z,26.2168,-96.4998,24.3,11144222 
TABS,ioos:station:wmo:42045:1,2006-04-03T15:39:00Z,26.2168,-96.4998,24.4,11144222 
TABS,ioos:station:wmo:42045:1,2006-04-03T16:09:00Z,26.2168,-96.4998,24.4,11144222 
TABS,ioos:station:wmo:42045:1,2006-04-03T16:39:00Z,26.2168,-96.4998,24.4,11144222 
TABS,ioos:station:wmo:42045:1,2006-04-03T17:09:00Z,26.2168,-96.4998,24.4,11144222 
TABS,ioos:station:wmo:42045:1,2006-04-03T17:39:00Z,26.2168,-96.4998,24.5,11144222 
TABS,ioos:station:wmo:42045:1,2006-04-03T18:09:00Z,26.2168,-96.4998,24.5,11144222 
TABS,ioos:station:wmo:42045:1,2006-04-03T18:39:00Z,26.2168,-96.4998,24.6,11144222 
TABS,ioos:station:wmo:42045:1,2006-04-03T19:09:00Z,26.2168,-96.4998,24.6,11144222 
TABS,ioos:station:wmo:42045:1,2006-04-03T19:39:00Z,26.2168,-96.4998,24.7,11144222 
TABS,ioos:station:wmo:42045:1,2006-04-03T20:09:00Z,26.2168,-96.4998,24.7,11144222 
TABS,ioos:station:wmo:42045:1,2006-04-03T20:39:00Z,26.2168,-96.4998,24.7,11144222 
TABS,ioos:station:wmo:42045:1,2006-04-03T21:09:00Z,26.2168,-96.4998,24.7,11144222 
TABS,ioos:station:wmo:42045:1,2006-04-03T21:39:00Z,26.2168,-96.4998,24.7,11144222 
TABS,ioos:station:wmo:42045:1,2006-04-03T22:09:00Z,26.2168,-96.4998,24.7,11144222 
TABS,ioos:station:wmo:42045:1,2006-04-03T22:39:00Z,26.2168,-96.4998,24.7,11144222 
TABS,ioos:station:wmo:42045:1,2006-04-03T23:09:00Z,26.2168,-96.4998,24.6,11144222 
TABS,ioos:station:wmo:42045:1,2006-04-03T23:39:00Z,26.2168,-96.4998,24.6,11144222 
TABS,ioos:station:wmo:42045:1,2006-04-04T00:09:00Z,26.2168,-96.4998,24.5,11144222 
TABS,ioos:station:wmo:42045:1,2006-04-04T00:39:00Z,26.2168,-96.4998,24.4,11144222 
TABS,ioos:station:wmo:42045:1,2006-04-04T01:09:00Z,26.2168,-96.4998,24.4,11144222 
TABS,ioos:station:wmo:42045:1,2006-04-04T01:39:00Z,26.2168,-96.4998,24.5,11144222 
TABS,ioos:station:wmo:42045:1,2006-04-04T02:09:00Z,26.2168,-96.4998,24.5,11144222 
TABS,ioos:station:wmo:42045:1,2006-04-04T02:39:00Z,26.2168,-96.4998,24.5,11144222 
TABS,ioos:station:wmo:42045:1,2006-04-04T03:09:00Z,26.2168,-96.4998,24.4,11144222 
TABS,ioos:station:wmo:42045:1,2006-04-04T03:39:00Z,26.2168,-96.4998,24.4,11144222 
TABS,ioos:station:wmo:42045:1,2006-04-04T04:09:00Z,26.2168,-96.4998,24.4,11144222 
TABS,ioos:station:wmo:42045:1,2006-04-04T04:39:00Z,26.2168,-96.4998,24.3,11144222 
TABS,ioos:station:wmo:42045:1,2006-04-04T05:09:00Z,26.2168,-96.4998,24.2,11144222 
TABS,ioos:station:wmo:42045:1,2006-04-04T05:39:00Z,26.2168,-96.4998,24.1,11144222 
TABS,ioos:station:wmo:42045:1,2006-04-04T06:09:00Z,26.2168,-96.4998,24.2,11144222 
TABS,ioos:station:wmo:42045:1,2006-04-04T06:39:00Z,26.2168,-96.4998,24.2,11144222 
TABS,ioos:station:wmo:42045:1,2006-04-04T07:09:00Z,26.2168,-96.4998,24.2,11144222 
TABS,ioos:station:wmo:42045:1,2006-04-04T07:39:00Z,26.2168,-96.4998,24.1,11144222 
TABS,ioos:station:wmo:42045:1,2006-04-04T08:09:00Z,26.2168,-96.4998,24.1,11144222 
TABS,ioos:station:wmo:42045:1,2006-04-04T08:39:00Z,26.2168,-96.4998,24.0,11144222 
TABS,ioos:station:wmo:42045:1,2006-04-04T09:09:00Z,26.2168,-96.4998,24.0,11144222 
TABS,ioos:station:wmo:42045:1,2006-04-04T09:39:00Z,26.2168,-96.4998,24.0,11144222 
TABS,ioos:station:wmo:42045:1,2006-04-04T10:09:00Z,26.2168,-96.4998,24.0,11144222 
TABS,ioos:station:wmo:42045:1,2006-04-04T10:39:00Z,26.2168,-96.4998,24.0,11144222 
TABS,ioos:station:wmo:42045:1,2006-04-04T11:09:00Z,26.2168,-96.4998,24.0,11144222 
TABS,ioos:station:wmo:42045:1,2006-04-04T11:39:00Z,26.2168,-96.4998,24.2,11144222 
TABS,ioos:station:wmo:42045:1,2006-04-04T12:09:00Z,26.2168,-96.4998,24.1,11144222 
TABS,ioos:station:wmo:42045:1,2006-04-04T12:39:00Z,26.2168,-96.4998,24.1,11144222 
TABS,ioos:station:wmo:42045:1,2006-04-04T13:09:00Z,26.2168,-96.4998,24.2,11144222 
TABS,ioos:station:wmo:42045:1,2006-04-04T13:39:00Z,26.2168,-96.4998,24.4,11144222 
TABS,ioos:station:wmo:42045:1,2006-04-04T14:09:00Z,26.2168,-96.4998,24.4,11144222 
TABS,ioos:station:wmo:42045:1,2006-04-04T14:39:00Z,26.2168,-96.4998,24.4,11144222 
TABS,ioos:station:wmo:42045:1,2006-04-04T15:09:00Z,26.2168,-96.4998,24.6,11144222 
TABS,ioos:station:wmo:42045:1,2006-04-04T15:39:00Z,26.2168,-96.4998,24.6,11144222 
TABS,ioos:station:wmo:42045:1,2006-04-04T16:09:00Z,26.2168,-96.4998,24.7,11144222 
TABS,ioos:station:wmo:42045:1,2006-04-04T16:39:00Z,26.2168,-96.4998,24.8,11144222 
TABS,ioos:station:wmo:42045:1,2006-04-04T17:09:00Z,26.2168,-96.4998,24.9,11144222 
TABS,ioos:station:wmo:42045:1,2006-04-04T17:39:00Z,26.2168,-96.4998,25.0,11144222 
TABS,ioos:station:wmo:42045:1,2006-04-04T18:09:00Z,26.2168,-96.4998,25.0,11144222 
TABS,ioos:station:wmo:42045:1,2006-04-04T18:39:00Z,26.2168,-96.4998,25.1,11144222 
TABS,ioos:station:wmo:42045:1,2006-04-04T19:09:00Z,26.2168,-96.4998,25.1,11144222 
TABS,ioos:station:wmo:42045:1,2006-04-04T19:39:00Z,26.2168,-96.4998,25.1,11144222 
TABS,ioos:station:wmo:42045:1,2006-04-04T20:09:00Z,26.2168,-96.4998,25.1,11144222 
TABS,ioos:station:wmo:42045:1,2006-04-04T20:39:00Z,26.2168,-96.4998,25.1,11144222 
TABS,ioos:station:wmo:42045:1,2006-04-04T21:09:00Z,26.2168,-96.4998,25.1,11144222 
TABS,ioos:station:wmo:42045:1,2006-04-04T21:39:00Z,26.2168,-96.4998,25.1,11144222 
TABS,ioos:station:wmo:42045:1,2006-04-04T22:09:00Z,26.2168,-96.4998,25.1,11144222 
TABS,ioos:station:wmo:42045:1,2006-04-04T22:39:00Z,26.2168,-96.4998,25.1,11144222 
TABS,ioos:station:wmo:42045:1,2006-04-04T23:09:00Z,26.2168,-96.4998,25.1,11144222 
TABS,ioos:station:wmo:42045:1,2006-04-04T23:39:00Z,26.2168,-96.4998,25.1,11144222 
TABS,ioos:station:wmo:42045:1,2006-04-05T00:09:00Z,26.2168,-96.4998,25.0,11144222 
TABS,ioos:station:wmo:42045:1,2006-04-05T00:39:00Z,26.2168,-96.4998,25.0,11144222 
TABS,ioos:station:wmo:42045:1,2006-04-05T01:09:00Z,26.2168,-96.4998,24.9,11144222 
TABS,ioos:station:wmo:42045:1,2006-04-05T01:39:00Z,26.2168,-96.4998,24.8,11144222 
TABS,ioos:station:wmo:42045:1,2006-04-05T02:09:00Z,26.2168,-96.4998,24.8,11144222 
TABS,ioos:station:wmo:42045:1,2006-04-05T02:39:00Z,26.2168,-96.4998,24.8,11144222 
TABS,ioos:station:wmo:42045:1,2006-04-05T03:09:00Z,26.2168,-96.4998,24.8,11144222 
TABS,ioos:station:wmo:42045:1,2006-04-05T03:39:00Z,26.2168,-96.4998,24.8,11144222 
TABS,ioos:station:wmo:42045:1,2006-04-05T04:09:00Z,26.2168,-96.4998,24.7,11144222 
TABS,ioos:station:wmo:42045:1,2006-04-05T04:39:00Z,26.2168,-96.4998,24.7,11144222 
TABS,ioos:station:wmo:42045:1,2006-04-05T05:09:00Z,26.2168,-96.4998,24.7,11144222 
TABS,ioos:station:wmo:42045:1,2006-04-05T05:39:00Z,26.2168,-96.4998,24.7,11144222 
TABS,ioos:station:wmo:42045:1,2006-04-05T06:09:00Z,26.2168,-96.4998,24.7,11144222 
TABS,ioos:station:wmo:42045:1,2006-04-05T06:39:00Z,26.2168,-96.4998,24.6,11144222 
TABS,ioos:station:wmo:42045:1,2006-04-05T07:09:00Z,26.2168,-96.4998,24.5,11144222 
TABS,ioos:station:wmo:42045:1,2006-04-05T07:39:00Z,26.2168,-96.4998,24.5,11144222 
TABS,ioos:station:wmo:42045:1,2006-04-05T08:09:00Z,26.2168,-96.4998,24.5,11144222 
TABS,ioos:station:wmo:42045:1,2006-04-05T08:39:00Z,26.2168,-96.4998,24.5,11144222 
TABS,ioos:station:wmo:42045:1,2006-04-05T09:09:00Z,26.2168,-96.4998,24.4,11144222 
TABS,ioos:station:wmo:42045:1,2006-04-05T09:39:00Z,26.2168,-96.4998,24.4,11144222 
TABS,ioos:station:wmo:42045:1,2006-04-05T10:09:00Z,26.2168,-96.4998,24.4,11144222 
TABS,ioos:station:wmo:42045:1,2006-04-05T10:39:00Z,26.2168,-96.4998,24.4,11144222 
TABS,ioos:station:wmo:42045:1,2006-04-05T11:09:00Z,26.2168,-96.4998,24.3,11144222 
TABS,ioos:station:wmo:42045:1,2006-04-05T11:39:00Z,26.2168,-96.4998,24.4,11144222 
TABS,ioos:station:wmo:42045:1,2006-04-05T12:09:00Z,26.2168,-96.4998,24.4,11144222 
TABS,ioos:station:wmo:42045:1,2006-04-05T12:39:00Z,26.2168,-96.4998,24.4,11144222 
TABS,ioos:station:wmo:42045:1,2006-04-05T13:09:00Z,26.2168,-96.4998,24.4,11144222 
TABS,ioos:station:wmo:42045:1,2006-04-05T13:39:00Z,26.2168,-96.4998,24.4,11144222 
TABS,ioos:station:wmo:42045:1,2006-04-05T14:09:00Z,26.2168,-96.4998,24.4,11144222 
TABS,ioos:station:wmo:42045:1,2006-04-05T14:39:00Z,26.2168,-96.4998,24.5,11144222 
TABS,ioos:station:wmo:42045:1,2006-04-05T15:09:00Z,26.2168,-96.4998,24.5,11144222 
TABS,ioos:station:wmo:42045:1,2006-04-05T15:39:00Z,26.2168,-96.4998,24.6,11144222 
TABS,ioos:station:wmo:42045:1,2006-04-05T16:09:00Z,26.2168,-96.4998,24.7,11144222 
TABS,ioos:station:wmo:42045:1,2006-04-05T16:39:00Z,26.2168,-96.4998,24.7,11144222 
TABS,ioos:station:wmo:42045:1,2006-04-05T17:09:00Z,26.2168,-96.4998,24.8,11144222 
TABS,ioos:station:wmo:42045:1,2006-04-05T17:39:00Z,26.2168,-96.4998,24.8,11144222 
TABS,ioos:station:wmo:42045:1,2006-04-05T18:09:00Z,26.2168,-96.4998,24.7,11144222 
TABS,ioos:station:wmo:42045:1,2006-04-05T18:39:00Z,26.2168,-96.4998,24.8,11144222 
TABS,ioos:station:wmo:42045:1,2006-04-05T19:09:00Z,26.2168,-96.4998,24.8,11144222 
TABS,ioos:station:wmo:42045:1,2006-04-05T19:39:00Z,26.2168,-96.4998,24.8,11144222 
TABS,ioos:station:wmo:42045:1,2006-04-05T20:09:00Z,26.2168,-96.4998,24.8,11144222 
TABS,ioos:station:wmo:42045:1,2006-04-05T20:39:00Z,26.2168,-96.4998,24.9,11144222 
TABS,ioos:station:wmo:42045:1,2006-04-05T21:09:00Z,26.2168,-96.4998,24.9,11144222 
TABS,ioos:station:wmo:42045:1,2006-04-05T21:39:00Z,26.2168,-96.4998,24.8,11144222 
TABS,ioos:station:wmo:42045:1,2006-04-05T22:09:00Z,26.2168,-96.4998,24.9,11144222 
TABS,ioos:station:wmo:42045:1,2006-04-05T22:39:00Z,26.2168,-96.4998,24.9,11144222 
TABS,ioos:station:wmo:42045:1,2006-04-05T23:09:00Z,26.2168,-96.4998,24.9,11144222 
TABS,ioos:station:wmo:42045:1,2006-04-05T23:39:00Z,26.2168,-96.4998,24.9,11144222 
TABS,ioos:station:wmo:42045:1,2006-04-06T00:09:00Z,26.2168,-96.4998,24.8,11144222 
TABS,ioos:station:wmo:42045:1,2006-04-06T00:39:00Z,26.2168,-96.4998,24.7,11144222 
TABS,ioos:station:wmo:42045:1,2006-04-06T01:09:00Z,26.2168,-96.4998,24.7,11144222 
TABS,ioos:station:wmo:42045:1,2006-04-06T01:39:00Z,26.2168,-96.4998,24.7,11144222 
TABS,ioos:station:wmo:42045:1,2006-04-06T02:09:00Z,26.2168,-96.4998,24.6,11144222 
TABS,ioos:station:wmo:42045:1,2006-04-06T02:39:00Z,26.2168,-96.4998,24.6,11144222 
TABS,ioos:station:wmo:42045:1,2006-04-06T03:09:00Z,26.2168,-96.4998,24.6,11144222 
TABS,ioos:station:wmo:42045:1,2006-04-06T03:39:00Z,26.2168,-96.4998,24.7,11144222 
TABS,ioos:station:wmo:42045:1,2006-04-06T04:09:00Z,26.2168,-96.4998,24.6,11144222 
TABS,ioos:station:wmo:42045:1,2006-04-06T04:39:00Z,26.2168,-96.4998,24.6,11144222 
TABS,ioos:station:wmo:42045:1,2006-04-06T05:09:00Z,26.2168,-96.4998,24.6,11144222 
TABS,ioos:station:wmo:42045:1,2006-04-06T05:39:00Z,26.2168,-96.4998,24.6,11144222 
TABS,ioos:station:wmo:42045:1,2006-04-06T06:09:00Z,26.2168,-96.4998,24.6,11144222 
TABS,ioos:station:wmo:42045:1,2006-04-06T06:39:00Z,26.2168,-96.4998,24.6,11144222 
TABS,ioos:station:wmo:42045:1,2006-04-06T07:09:00Z,26.2168,-96.4998,24.6,11144222 
TABS,ioos:station:wmo:42045:1,2006-04-06T07:39:00Z,26.2168,-96.4998,24.6,11144222 
TABS,ioos:station:wmo:42045:1,2006-04-06T08:09:00Z,26.2168,-96.4998,24.6,11144222 
TABS,ioos:station:wmo:42045:1,2006-04-06T08:39:00Z,26.2168,-96.4998,24.5,11144222 
TABS,ioos:station:wmo:42045:1,2006-04-06T09:09:00Z,26.2168,-96.4998,24.6,11144222 
TABS,ioos:station:wmo:42045:1,2006-04-06T09:39:00Z,26.2168,-96.4998,24.6,11144222 
TABS,ioos:station:wmo:42045:1,2006-04-06T10:09:00Z,26.2168,-96.4998,24.5,11144222 
TABS,ioos:station:wmo:42045:1,2006-04-06T10:39:00Z,26.2168,-96.4998,24.5,11144222 
TABS,ioos:station:wmo:42045:1,2006-04-06T11:09:00Z,26.2168,-96.4998,24.5,11144222 
TABS,ioos:station:wmo:42045:1,2006-04-06T11:39:00Z,26.2168,-96.4998,24.3,11144222 
TABS,ioos:station:wmo:42045:1,2006-04-06T12:09:00Z,26.2168,-96.4998,24.4,11144222 
TABS,ioos:station:wmo:42045:1,2006-04-06T12:39:00Z,26.2168,-96.4998,24.4,11144222 
TABS,ioos:station:wmo:42045:1,2006-04-06T13:09:00Z,26.2168,-96.4998,24.5,11144222 
TABS,ioos:station:wmo:42045:1,2006-04-06T13:39:00Z,26.2168,-96.4998,24.6,11144222 
TABS,ioos:station:wmo:42045:1,2006-04-06T14:09:00Z,26.2168,-96.4998,24.6,11144222 
TABS,ioos:station:wmo:42045:1,2006-04-06T14:39:00Z,26.2168,-96.4998,24.6,11144222 
TABS,ioos:station:wmo:42045:1,2006-04-06T15:09:00Z,26.2168,-96.4998,24.6,11144222 
TABS,ioos:station:wmo:42045:1,2006-04-06T15:39:00Z,26.2168,-96.4998,24.7,11144222 
TABS,ioos:station:wmo:42045:1,2006-04-06T16:09:00Z,26.2168,-96.4998,24.7,11144222 
TABS,ioos:station:wmo:42045:1,2006-04-06T16:39:00Z,26.2168,-96.4998,24.7,11144222 
TABS,ioos:station:wmo:42045:1,2006-04-06T17:09:00Z,26.2168,-96.4998,24.8,11144222 
TABS,ioos:station:wmo:42045:1,2006-04-06T17:39:00Z,26.2168,-96.4998,24.9,11144222 
TABS,ioos:station:wmo:42045:1,2006-04-06T18:09:00Z,26.2168,-96.4998,24.9,11144222 
TABS,ioos:station:wmo:42045:1,2006-04-06T18:39:00Z,26.2168,-96.4998,24.9,11144222 
TABS,ioos:station:wmo:42045:1,2006-04-06T19:09:00Z,26.2168,-96.4998,24.9,11144222 
TABS,ioos:station:wmo:42045:1,2006-04-06T19:39:00Z,26.2168,-96.4998,24.9,11144222 
TABS,ioos:station:wmo:42045:1,2006-04-06T20:09:00Z,26.2168,-96.4998,24.9,11144222 
TABS,ioos:station:wmo:42045:1,2006-04-06T20:39:00Z,26.2168,-96.4998,24.9,11144222 
TABS,ioos:station:wmo:42045:1,2006-04-06T21:09:00Z,26.2168,-96.4998,24.9,11144222 
TABS,ioos:station:wmo:42045:1,2006-04-06T21:39:00Z,26.2168,-96.4998,25.0,11144222 
TABS,ioos:station:wmo:42045:1,2006-04-06T22:09:00Z,26.2168,-96.4998,25.0,11144222 
TABS,ioos:station:wmo:42045:1,2006-04-06T22:39:00Z,26.2168,-96.4998,25.0,11144222 
TABS,ioos:station:wmo:42045:1,2006-04-06T23:09:00Z,26.2168,-96.4998,25.0,11144222 
TABS,ioos:station:wmo:42045:1,2006-04-06T23:39:00Z,26.2168,-96.4998,24.9,11144222 
TABS,ioos:station:wmo:42045:1,2006-04-07T00:09:00Z,26.2168,-96.4998,24.8,11144222 
TABS,ioos:station:wmo:42045:1,2006-04-07T00:39:00Z,26.2168,-96.4998,24.8,11144222 
TABS,ioos:station:wmo:42045:1,2006-04-07T01:09:00Z,26.2168,-96.4998,24.8,11144222 
TABS,ioos:station:wmo:42045:1,2006-04-07T01:39:00Z,26.2168,-96.4998,24.9,11144222 